Weather in Vovchyk

Ukraine / Poltava Region     50°04′24″N   33°10′56″E
temp.,
°C
wind,
m/s
gust,
m/s
humid.,
%
clouds,
%
prec.,
mm/h
press.,
hPa
HPBL,
m
9 march, tue
tue923:00−3wnw697897 0.2 1013546
02:00−4nnw698583 0.3 1015519
05:00−6nw697643 0.0 1016531
08:00−6nw587721 0.0 1018507
11:00−4nnw566692 0.0 1020973
14:00−4nw566396 0.1 1021986
17:00−5nnw577094 0.0 1022838
20:00−6nnw476976 0.0 1024669
10 march, wed
wed1023:00−6nnw347311 0.0 1025343
02:00−7nnw24766 0.0 1027268
05:00−8nnw237919 0.0 1027211
08:00−8n227547 0.0 1028243
11:00−5n1158100 0.0 1028536
14:00−3nnw114588 0.0 1028812
17:00−3nne22473 0.0 1026697
20:00−4ne24622 0.0 1027261
11 march, thu
thu1123:00−4ene23640 0.0 1028221
02:00−5ene24660 0.0 1028194
05:00−6ene24682 0.0 1028206
08:00−5ene34619 0.0 1030310
11:00−2ese234227 0.0 1030947
14:000ese223855 0.0 10291395
17:00−1e234760 0.0 1029459
20:00−3ese586153 0.0 1030473
12 march, fri
fri1223:00−4se58580 0.0 1031507
02:00−5sse58520 0.0 1030500
05:00−5sse58440 0.0 1030476
08:00−5sse693845 0.0 1030540
11:00−2sse7935100 0.0 1029863
14:00−1sse7103299 0.0 10281048
17:00−2sse7113597 0.0 10261061
20:00−2s7123798 0.1 1027995
13 march, sat
sat1323:00−2s9145099 0.1 1026980
02:00−4s91487100 0.2 1025748
05:00−4s71292100 0.9 1025622
08:00−3s71190100 1.4 1025586
11:000s71087100 0.3 1024660
14:00+1ssw7119699 0.4 1023650
17:00+1ssw71297100 0.2 1022584
20:000s51286100 0.3 1022615